Printer-friendly version

IAU Minor Planet Center

Minor Planet Center

MPEC 2001-W05: 2001 VJ75

The following Minor Planet Electronic Circular may be linked-to from your own Web pages, but must not otherwise be redistributed electronically.


Read MPEC 2001-W04 Read MPEC 2001-W06


M.P.E.C. 2001-W05                                Issued 2001 Nov. 16, 17:04 UT

     The Minor Planet Electronic Circulars contain information on unusual
         minor planets and routine data on comets.  They are published
   on behalf of Commission 20 of the International Astronomical Union by the
          Minor Planet Center, Smithsonian Astrophysical Observatory,
                          Cambridge, MA 02138, U.S.A.

             Prepared using the Tamkin Foundation Computer Network

                              MPC@CFA.HARVARD.EDU
          URL http://cfa-www.harvard.edu/iau/mpc.html  ISSN 1523-6714

                                   2001 VJ75

Observations:
     K01V75J* C2001 11 12.45245 08 40 36.58 +24 27 35.3          20.3        704
     K01V75J  C2001 11 12.46685 08 40 40.86 +24 28 39.1          20.0        704
     K01V75J  C2001 11 12.48124 08 40 44.95 +24 29 43.3          19.8        704
     K01V75J  C2001 11 12.49563 08 40 49.09 +24 30 45.8          19.5        704
     K01V75J  C2001 11 14.01687 08 48 21.94 +26 19 52.4                      557
     K01V75J  C2001 11 14.01845 08 48 22.37 +26 20 00.1                      557
     K01V75J  C2001 11 14.01939 08 48 22.63 +26 20 03.6                      557
     K01V75J  C2001 11 14.02031 08 48 22.83 +26 20 07.1                      557
     K01V75J  C2001 11 16.04885 08 58 07.93 +28 38 48.2          18.3 R      046
     K01V75J  C2001 11 16.04985 08 58 08.17 +28 38 53.1                      046
     K01V75J  C2001 11 16.05286 08 58 08.98 +28 39 05.0                      046
     K01V75J  C2001 11 16.05463 08 58 09.40 +28 39 13.8          18.2 R      046
     K01V75J  C2001 11 16.36254 08 59 36.62 +28 59 37.2          18.4 R      649
     K01V75J  C2001 11 16.36537 08 59 37.41 +28 59 49.4          18.6 R      649
     K01V75J  C2001 11 16.36813 08 59 38.17 +29 00 00.1          18.6 R      649

Observer details:
046 Klet.  Observers M. Tichy, M. Kocer.  0.57-m f/5.2 reflector + CCD.
557 Ondrejov.  Observers P. Pravec, P. Kusnirak.  0.65-m f/3.6 reflector + CCD.
649 Powell Observatory, Louisburg.  Observers K. Smalley, R. Trentman.
    0.75-m Newtonian + CCD.
704 Lincoln Laboratory ETS, New Mexico.  Observers M. Blythe, F. Shelly,
    M. Bezpalko, R. Huber, L. Manguso, S. Adams, J. Piscitelli.  Measurers
    J. Stuart, R. Sayer, J. B. Evans, H. Viggh.  1.0-m f/2.15 reflector + CCD.

Orbital elements:
2001 VJ75
Epoch 2001 Nov. 7.0 TT = JDT 2452220.5                  MPC
M   0.79064              (2000.0)            P               Q
n   0.18969175     Peri.  353.40443     +0.61081289     -0.74725052
a   2.9998792      Node    58.60462     +0.73973152     +0.42068782
e   0.6443014      Incl.   17.85867     +0.28232055     +0.51443020
P   5.20           H   19.6           G   0.15
From 15 observations 2001 Nov. 12-16.

Ephemeris:
2001 VJ75                a,e,i = 3.00, 0.64, 18                  q = 1.0671
Date    TT    R. A. (2000) Decl.     Delta      r     Elong.  Phase     V
2001 11 07    08 12.32   +17 20.4    0.233    1.069   103.2    64.6    18.9
2001 11 12    08 38.32   +23 54.2    0.243    1.074   103.8    63.5    18.9
2001 11 17    09 02.56   +29 41.2    0.257    1.084   104.9    61.9    19.0
2001 11 22    09 24.61   +34 39.0    0.275    1.097   106.3    59.8    19.1
2001 11 27    09 44.17   +38 51.8    0.295    1.114   108.2    57.3    19.3
2001 12 02    10 01.03   +42 26.6    0.316    1.135   110.3    54.6    19.4
2001 12 07    10 15.03   +45 31.1    0.339    1.159   112.6    51.7    19.5
2001 12 12    10 26.01   +48 11.8    0.362    1.185   115.2    48.7    19.6
2001 12 17    10 33.86   +50 33.2    0.387    1.214   117.9    45.7    19.7
2001 12 22    10 38.55   +52 37.9    0.412    1.246   120.8    42.7    19.8
2001 12 27    10 40.08   +54 27.0    0.438    1.279   123.6    39.8    19.9
2002 01 01    10 38.55   +56 00.6    0.465    1.314   126.5    37.0    20.0
2002 01 06    10 34.12   +57 17.8    0.493    1.350   129.2    34.4    20.1
2002 01 11    10 27.08   +58 17.0    0.524    1.388   131.7    32.0    20.3
2002 01 16    10 17.97   +58 56.5    0.556    1.427   133.8    29.8    20.4
2002 01 21    10 07.47   +59 15.1    0.591    1.466   135.6    28.0    20.5
2002 01 26    09 56.42   +59 12.9    0.629    1.506   136.9    26.6    20.7
2002 01 31    09 45.57   +58 50.8    0.670    1.547   137.6    25.5    20.8
2002 02 05    09 35.54   +58 11.2    0.714    1.588   137.7    24.7    21.0
2002 02 10    09 26.78   +57 16.5    0.761    1.629   137.2    24.3    21.2
2002 02 15    09 19.57   +56 09.6    0.812    1.671   136.2    24.2    21.4
2002 02 20    09 14.03   +54 53.5    0.867    1.713   134.7    24.2    21.6
2002 02 25    09 10.12   +53 30.8    0.925    1.755   132.8    24.5    21.8

Brian G. Marsden             (C) Copyright 2001 MPC           M.P.E.C. 2001-W05

Read MPEC 2001-W04 Read MPEC 2001-W06


Our Web policy. Index to the CBAT/MPC/ICQ pages.


Valid HTML 4.01!